This demonstration page uses our WeatherBlox Daily Observations layout. Learn more.

Left ArrowRight Arrow

Hourly Observations for April 1, 2015

Temp ( °F °C ) Dew Point ( °F °C ) Humidity (%) Winds ( mph kmh ) Pressure ( in mb ) Visibility ( mi km ) Precip ( " mm )
12:53 am 00:53 Clear 38 3.3 34 1.1 86 86 E 6 9 30.05 1018 9 14.48406 0 0
1:53 am 01:53 Clear 37 2.8 32 0 82 82 E 5 7 30.07 1018 10 16.0934 0 0
2:53 am 02:53 Clear 36 2.2 32 0 86 86 E 3 6 30.08 1019 10 16.0934 0 0
3:53 am 03:53 Clear 31 -0.6 29 -1.7 92 92 Calm 30.07 1018 9 14.48406 0 0
4:53 am 04:53 Clear 30 -1.1 28 -2.2 92 92 Calm 30.07 1018 9 14.48406 0 0
5:53 am 05:53 Clear with Mist and Fog 29 -1.7 27 -2.8 92 92 Calm 30.08 1019 6 9.65604 0 0
6:53 am 06:53 Clear 28 -2.2 26 -3.3 92 92 Calm 30.11 1020 7 11.26538 0 0
7:53 am 07:53 Sunny with Mist and Fog 30 -1.1 29 -1.7 96 96 Calm 30.13 1020 6 9.65604 0 0
8:53 am 08:53 Sunny 38 3.3 35 1.7 89 89 Calm 30.15 1021 7 11.26538 0 0
9:53 am 09:53 Sunny 47 8.3 37 2.8 69 69 Calm 30.16 1021 10 16.0934 0 0
10:53 am 10:53 Sunny 51 10.6 38 3.3 61 61 Calm 30.18 1022 10 16.0934 0 0
11:53 am 11:53 Sunny 58 14.4 35 1.7 42 42 VRB 3 6 30.18 1022 10 16.0934 0 0
12:53 pm 12:53 Sunny 61 16.1 35 1.7 38 38 VRB 3 6 30.16 1022 10 16.0934 0 0
1:53 pm 13:53 Sunny 64 17.8 34 1.1 33 33 VRB 3 6 30.15 1021 10 16.0934 0 0
2:53 pm 14:53 Sunny 65 18.3 30 -1.1 27 27 Calm 30.12 1020 10 16.0934 0 0
3:53 pm 15:53 Sunny 66 18.9 31 -0.6 27 27 VRB 6 9 30.11 1020 10 16.0934 0 0
4:53 pm 16:53 Sunny 68 20 31 -0.6 25 25 VRB 7 11 30.09 1019 10 16.0934 0 0
5:53 pm 17:53 Sunny 68 20 28 -2.2 22 22 S 5 7 30.09 1019 10 16.0934 0 0
6:53 pm 18:53 Sunny 67 19.4 29 -1.7 24 24 S 7 11 30.09 1019 10 16.0934 0 0
7:53 pm 19:53 Sunny 64 17.8 30 -1.1 28 28 VRB 3 6 30.07 1018 10 16.0934 0 0
8:53 pm 20:53 Clear 52 11.1 32 0 47 47 Calm 30.09 1019 10 16.0934 0 0
9:53 pm 21:53 Clear 48 8.9 33 0.6 56 56 E 3 6 30.09 1019 10 16.0934 0 0
10:53 pm 22:53 Clear 45 7.2 32 0 61 61 Calm 30.08 1019 10 16.0934 0 0
11:53 pm 23:53 Clear 46 7.8 33 0.6 61 61 E 3 6 30.06 1018 10 16.0934 0 0

Powered by AerisWeather